Home > Weather > Campinas > Past weeks

Flag for Brazil Weather for the Past 2 Weeks in Campinas, São Paulo, Brazil

Now
61 °F

Clear.


Feels Like: 61 °F
Forecast: 60 / 81 °F
Wind: 15 mph from Southeast

Location: Campinas Aeroporto

Current Time: May 6, 2016 at 5:08:43 AM

Latest Report: May 6, 2016 at 4:00 AM


Visibility: 10 mi

Pressure: 30.09 "Hg (27.75 "Hg at 686m altitude)

Humidity: 94%

Dew Point: 59 °F

Location of CampinasLocation

Historic Weather in Campinas — Graph

°F

Campinas Temperature Yesterday

Maximum temperature yesterday: 79 °F (at 12:00 PM)
Minimum temperature yesterday: 59 °F (at 6:00 AM)
Average temperature yesterday: 69 °F

High & Low Weather Summary for the Past Weeks

 TemperatureHumidityPressure
High90 °F (Apr 22, 1:00 PM)100% (Apr 27, 12:00 AM)30.24 "Hg (Apr 27, 12:00 AM)
Low50 °F (May 2, 1:00 AM)23% (May 2, 3:00 PM)29.83 "Hg (Apr 25, 3:00 PM)
Average69 °F66%30.06 "Hg
* Reported Apr 21 4:00 AM — May 6 4:00 AM, Campinas, Weather by CustomWeather, © 2016

Note: Actual official high and low records may vary slightly from our data, if they occured in-between our weather recording intervals... More about our weather records

Advertising

Campinas Weather History for the Previous 24 Hours

Scroll right to see more
 ConditionsComfort  
Time TempWeatherWind HumidityBarometerVisibility
4:00 AM
Fri, May 6
61 °FClear.15 mph94%30.09 "Hg10 mi
3:00 AM61 °FClear.14 mph94%30.12 "Hg4 mi
2:00 AM61 °FClear.13 mph94%30.12 "Hg4 mi
1:00 AM63 °FClear.14 mph88%30.15 "Hg4 mi
12:00 AM63 °FClear.14 mph88%30.15 "Hg4 mi
11:00 PM
Thu, May 5
64 °FFog.13 mph83%30.15 "Hg3 mi
10:00 PM66 °FClear.10 mph73%30.18 "Hg4 mi
9:00 PM66 °FClear.9 mph73%30.18 "Hg5 mi
8:00 PM68 °FClear.10 mph69%30.15 "Hg5 mi
7:00 PM70 °FClear.8 mph57%30.15 "Hg10 mi
6:00 PM73 °FClear.6 mph50%30.12 "Hg10 mi
5:00 PM77 °FPassing clouds.9 mph42%30.12 "HgN/A
4:00 PM79 °FPassing clouds.10 mph39%30.12 "HgN/A
3:00 PM79 °FScattered clouds.8 mph39%30.12 "HgN/A
2:00 PM79 °FPartly sunny.6 mph39%30.12 "HgN/A
1:00 PM79 °FScattered clouds.6 mph37%30.15 "HgN/A
12:00 PM79 °FPassing clouds.5 mph39%30.18 "HgN/A
11:00 AM75 °FPassing clouds.6 mph50%30.18 "Hg5 mi
10:00 AM72 °FClear.5 mph61%30.21 "Hg4 mi
9:00 AM68 °FClear.8 mph64%30.18 "Hg4 mi
8:00 AM63 °FClear.7 mph83%30.18 "Hg4 mi
7:00 AM61 °FClear.8 mph83%30.15 "Hg4 mi
6:00 AM59 °FSunny.12 mph94%30.12 "Hg10 mi
5:00 AM61 °FClear.14 mph88%30.09 "Hg10 mi
Weather by CustomWeather, © 2016

See weather overviewHow to use our weather pages